W7JFO-3 Weather Reports


time (UTC)temp
F
wind
direction
speed
knots
gust
knots
rain 1hr
in
rain 24hr
in
rain mn
in
humidity
%
barometer
mb
20260503050149 57 160 0.9 3.5 0.00 0.00 0.00 44 1011.1
20260503044649 56 160 2.6 3.5 0.00 0.00 0.00 47 1011.1
20260503043149 57 166 2.6 4.3 0.00 0.00 0.00 47 1011.1
20260503041649 57 151 2.6 7.8 0.00 0.00 0.00 49 1011.3
20260503040149 58 165 2.6 5.2 0.00 0.00 0.00 45 1011.2
20260503034649 59 174 3.5 5.2 0.00 0.00 0.00 43 1011.2
20260503033149 59 167 3.5 5.2 0.00 0.00 0.00 44 1011.2
20260503031649 59 167 1.7 4.3 0.00 0.00 0.00 43 1010.9
20260503030149 60 209 2.6 4.3 0.00 0.00 0.00 42 1010.8
20260503024650 61 205 2.6 5.2 0.00 0.00 0.00 38 1011.0
20260503023150 61 63 1.7 3.5 0.00 0.00 0.00 36 1010.8
20260503021650 61 321 1.7 4.3 0.00 0.00 0.00 39 1011.0
20260503020150 60 33 4.3 7.0 0.00 0.00 0.00 38 1010.8
20260503014650 61 306 4.3 7.8 0.00 0.00 0.00 40 1010.9
20260503013150 61 332 3.5 5.2 0.00 0.00 0.00 39 1011.0
20260503011650 63 56 1.7 2.6 0.00 0.00 0.00 37 1011.0
20260503010150 63 56 1.7 3.5 0.00 0.00 0.00 37 1011.1
20260503004650 64 149 0.9 1.7 0.00 0.00 0.00 36 1011.1
20260503003150 64 170 1.7 3.5 0.00 0.00 0.00 36 1011.1
20260503001650 63 219 3.5 26.1 0.00 0.00 0.00 39 1011.8
20260503000150 63 319 0.9 2.6 0.00 0.00 0.00 37 1011.5
20260502234650 63 319 2.6 4.3 0.00 0.00 0.00 37 1011.5
20260502233150 64 303 2.6 5.2 0.00 0.00 0.00 35 1011.4
20260502231650 62 349 3.5 7.0 0.00 0.00 0.00 41 1011.6
20260502230150 62 316 4.3 7.8 0.00 0.00 0.00 42 1011.7
20260502224650 62 334 6.1 11.3 0.00 0.00 0.00 41 1011.9
20260502223150 64 295 3.5 7.8 0.00 0.00 0.00 39 1012.1
20260502221650 63 322 5.2 8.7 0.00 0.00 0.00 39 1012.0
20260502220150 63 355 4.3 7.8 0.00 0.00 0.00 37 1011.9
20260502214650 63 349 3.5 7.0 0.00 0.00 0.00 39 1012.1
20260502213150 63 286 2.6 4.3 0.00 0.00 0.00 39 1012.3
20260502211650 64 303 4.3 9.6 0.00 0.00 0.00 38 1012.7
20260502210150 62 355 4.3 7.8 0.00 0.00 0.00 44 1012.6
20260502204650 62 313 6.1 10.4 0.00 0.00 0.00 43 1012.8
20260502203150 63 325 4.3 7.8 0.00 0.00 0.00 42 1012.7
20260502201650 63 326 2.6 7.8 0.00 0.00 0.00 42 1012.8
20260502200150 61 348 3.5 7.0 0.00 0.00 0.00 42 1012.9
20260502194650 60 326 3.5 7.8 0.00 0.00 0.00 42 1013.4
20260502193150 60 337 4.3 7.0 0.00 0.00 0.00 42 1013.5
20260502191650 60 9 3.5 6.1 0.00 0.00 0.00 44 1013.8
20260502190150 59 17 2.6 4.3 0.00 0.00 0.00 49 1014.1
20260502184650 59 355 3.5 6.1 0.00 0.00 0.00 47 1014.0
20260502183150 58 304 2.6 7.0 0.00 0.00 0.00 48 1014.2
20260502181650 58 15 2.6 4.3 0.00 0.00 0.00 47 1014.5
20260502180150 57 313 2.6 7.0 0.00 0.00 0.00 51 1014.5
20260502170150 52 259 3.5 6.1 0.00 0.00 0.00 53 1015.1
20260502163150 50 332 4.3 7.0 0.00 0.00 0.00 55 1014.9
20260502161651 50 302 4.3 7.8 0.00 0.00 0.00 54 1014.8
20260502160151 51 314 2.6 7.0 0.00 0.00 0.00 54 1014.9
20260502151651 49 299 2.6 6.1 0.00 0.00 0.00 56 1015.0
20260502150151 49 289 2.6 4.3 0.00 0.00 0.00 55 1014.9
20260502130151 49 311 1.7 1.7 0.00 0.00 0.00 54 1014.2
20260502123151 49 313 2.6 3.5 0.00 0.00 0.00 54 1014.3
20260502121651 49 320 1.7 4.3 0.00 0.00 0.00 53 1014.1
20260502120151 49 242 1.7 3.5 0.00 0.00 0.00 53 1014.2
20260502114651 49 154 1.7 5.2 0.00 0.00 0.00 52 1014.2
20260502113151 51 323 1.7 1.7 0.00 0.00 0.00 49 1014.1
20260502111651 50 324 2.6 2.6 0.00 0.00 0.00 50 1014.1
20260502110151 50 326 3.5 5.2 0.00 0.00 0.00 50 1014.1
20260502104651 50 302 5.2 7.0 0.00 0.00 0.00 51 1013.9
20260502103151 49 277 6.1 7.8 0.00 0.00 0.00 55 1013.9
20260502101651 49 261 6.1 7.8 0.00 0.00 0.00 55 1013.7
20260502100151 48 250 4.3 6.1 0.00 0.00 0.00 56 1013.6
20260502090151 52 11 1.7 2.6 0.00 0.00 0.00 48 1013.2
20260502070151 58 244 1.7 2.6 0.00 0.00 0.00 38 1013.2
20260502064651 58 244 0.9 2.6 0.00 0.00 0.00 37 1013.2
20260502063152 58 244 0.9 1.7 0.00 0.00 0.00 37 1012.9
20260502061652 58 244 1.7 2.6 0.00 0.00 0.00 37 1012.8
20260502060151 58 241 1.7 1.7 0.00 0.00 0.00 37 1012.8
20260502054652 58 246 1.7 3.5 0.00 0.00 0.00 38 1012.7
20260502053152 58 196 1.7 3.5 0.00 0.00 0.00 38 1012.6
20260502051652 58 200 2.6 7.8 0.00 0.00 0.00 39 1012.5